Simultaneous Nadir Overpasses (SNOs) Predictions

Prediction of SNOs between AURA and NPP Satellite Orbit:

Table of predicted SNOs for the next 14.0 days since TLE Epoch: 6/10/2016
Index Date (AURA) Time (AURA) Lat,Lon (AURA) SZA (AURA ) Date (NPP) Time (NPP) Lat,Lon (NPP) SZA (NPP ) Distance(km) Time Diff (sec)
1 06/12/2016 02:52:02 79.26, 32.09 69.99 06/12/2016 02:51:55 79.25, 32.01 70.01 1.75 7
2 06/12/2016 03:41:22 -79.53,-158.44 110.42 06/12/2016 03:42:32 -79.53,-158.47 110.46 0.64 70
3 06/14/2016 18:19:08 -79.11, -20.58 109.92 06/14/2016 18:18:09 -79.12, -20.50 109.89 1.74 59
4 06/14/2016 19:08:27 79.38, 148.77 69.70 06/14/2016 19:08:46 79.38, 148.75 69.69 0.48 19
5 06/17/2016 10:35:35 -79.12, 95.32 109.98 06/17/2016 10:35:03 -79.11, 95.21 109.94 2.39 32
6 06/17/2016 11:24:51 79.50, -94.58 69.47 06/17/2016 11:25:36 79.50, -94.49 69.42 1.82 45
7 06/20/2016 02:51:58 -79.31,-147.59 110.27 06/20/2016 02:51:52 -79.31,-147.55 110.27 0.81 6
8 06/20/2016 03:41:18 79.53, 21.52 69.42 06/20/2016 03:42:30 79.52, 21.45 69.38 1.38 72
9 06/22/2016 18:19:06 79.00, 158.74 70.21 06/22/2016 18:18:10 78.99, 158.62 70.28 2.77 56




NCC Satellite Simultaneous Nadir Overpasses (SNOs) Prediction Service
